DW8587 Weather Reports


Display with metric or nautical units.
time (UTC)temp
F
wind
direction
speed
MPH
gust
MPH
rain 1hr
in
rain 24hr
in
rain mn
in
humidity
%
barometer
mb
20260903041542 66 345 2.0 3.0 0.00 0.00 0.00 79 1017.3
20260903040044 67 35 4.0 6.0 0.00 0.00 0.00 78 1017.2
20260903034540 67 28 2.0 5.0 0.00 0.00 0.00 78 1017.1
20260903033039 67 32 3.0 5.0 0.00 0.00 0.00 78 1017.1
20260903031545 67 34 4.0 8.0 0.00 0.00 0.00 79 1017.0
20260903030036 67 26 1.0 4.0 0.00 0.00 0.00 80 1016.8
20260903024536 66 37 1.0 3.0 0.00 0.00 0.00 81 1016.9
20260903023036 67 37 2.0 4.0 0.00 0.00 0.00 82 1017.0
20260903021532 67 37 0.0 2.0 0.00 0.00 0.00 80 1017.0
20260903020038 68 37 0.0 1.0 0.00 0.00 0.00 80 1017.0
20260903014527 69 37 0.0 2.0 0.00 0.00 0.00 79 1017.0
20260903013027 69 37 1.0 3.0 0.00 0.00 0.00 79 1017.0
20260903011526 68 37 1.0 3.0 0.00 0.00 0.00 80 1017.0
20260903010024 69 37 1.0 3.0 0.00 0.00 0.00 79 1017.0
20260903004522 69 37 0.0 3.0 0.00 0.00 0.00 79 1016.9
20260903003020 70 37 2.0 4.0 0.00 0.00 0.00 78 1017.0
20260903001518 71 32 3.0 5.0 0.00 0.00 0.00 76 1016.9
20260903000016 71 344 3.0 5.0 0.00 0.00 0.00 76 1016.8
20260902234513 71 39 4.0 7.0 0.00 0.00 0.00 75 1016.7
20260902233013 72 360 3.0 5.0 0.00 0.00 0.00 75 1016.7
20260902231512 72 338 1.0 3.0 0.00 0.00 0.00 75 1016.7
20260902230015 72 355 2.0 4.0 0.00 0.00 0.00 76 1016.7
20260902224509 72 40 4.0 5.0 0.00 0.00 0.00 76 1016.7
20260902223008 72 38 3.0 5.0 0.00 0.00 0.00 77 1016.6
20260902221507 71 355 2.0 4.0 0.00 0.00 0.00 79 1016.6
20260902220004 71 22 4.0 6.0 0.00 0.00 0.00 80 1016.6
20260902214504 72 37 3.0 5.0 0.00 0.00 0.00 79 1016.5
20260902213003 72 338 1.0 4.0 0.00 0.00 0.00 80 1016.5
20260902211503 72 36 2.0 9.0 0.00 0.00 0.00 79 1016.4
20260902210003 72 34 3.0 10.0 0.00 0.00 0.00 80 1016.2
20260902204501 72 37 5.0 9.0 0.00 0.00 0.00 80 1016.3
20260902203002 73 40 4.0 5.0 0.00 0.00 0.00 79 1016.1
20260902201502 73 39 4.0 7.0 0.00 0.00 0.00 79 1016.0
20260902200103 73 38 4.0 6.0 0.00 0.00 0.00 78 1016.0
20260902194602 74 44 2.0 5.0 0.00 0.00 0.00 77 1015.8
20260902193100 75 32 2.0 3.0 0.00 0.00 0.00 76 1015.9
20260902191600 76 40 2.0 4.0 0.00 0.00 0.00 74 1015.8
20260902184559 78 290 0.0 2.0 0.00 0.00 0.00 68 1015.3
20260902183110 80 290 0.0 1.0 0.00 0.00 0.00 66 1015.3
20260902181612 81 290 0.0 1.0 0.00 0.00 0.00 64 1015.3
20260902180057 81 290 0.0 2.0 0.00 0.00 0.00 62 1015.1
20260902174559 82 290 0.0 3.0 0.00 0.00 0.00 60 1015.0
20260902173114 83 294 0.0 2.0 0.00 0.00 0.00 60 1015.0
20260902171558 84 336 0.0 4.0 0.00 0.00 0.00 58 1015.0
20260902170056 85 248 2.0 5.0 0.00 0.00 0.00 56 1015.0
20260902164602 85 309 1.0 5.0 0.00 0.00 0.00 54 1014.9
20260902163055 86 310 1.0 5.0 0.00 0.00 0.00 55 1014.9
20260902161554 87 350 3.0 6.0 0.00 0.00 0.00 52 1014.9
20260902160053 87 330 2.0 5.0 0.00 0.00 0.00 52 1015.0
20260902154552 87 298 2.0 5.0 0.00 0.00 0.00 53 1015.1
20260902153059 86 268 4.0 9.0 0.00 0.00 0.00 55 1015.3
20260902151550 87 323 3.0 9.0 0.00 0.00 0.00 52 1015.3
20260902150047 88 303 3.0 7.0 0.00 0.00 0.00 52 1015.5
20260902144546 86 272 1.0 7.0 0.00 0.00 0.00 54 1015.6
20260902143047 87 343 3.0 6.0 0.00 0.00 0.00 51 1015.6
20260902141543 86 296 2.0 10.0 0.00 0.00 0.00 53 1015.7
20260902140041 87 294 3.0 9.0 0.00 0.00 0.00 53 1015.8
20260902134539 86 167 1.0 6.0 0.00 0.00 0.00 53 1015.9
20260902133038 86 144 3.0 7.0 0.00 0.00 0.00 52 1015.9
20260902131535 86 250 0.0 7.0 0.00 0.00 0.00 53 1016.1
20260902130030 85 319 2.0 5.0 0.00 0.00 0.00 56 1016.4
20260902124528 83 175 2.0 5.0 0.00 0.00 0.00 59 1016.5
20260902123028 83 118 1.0 3.0 0.00 0.00 0.00 60 1016.7
20260902121525 84 255 1.0 3.0 0.00 0.00 0.00 58 1016.8
20260902120025 84 327 0.0 4.0 0.00 0.00 0.00 59 1017.0
20260902114523 84 211 3.0 6.0 0.00 0.00 0.00 59 1017.1
20260902113023 83 205 3.0 9.0 0.00 0.00 0.00 60 1017.2
20260902111521 84 106 1.0 6.0 0.00 0.00 0.00 60 1017.5
20260902110035 83 133 2.0 7.0 0.00 0.00 0.00 62 1017.7
20260902104532 82 311 0.0 7.0 0.00 0.00 0.00 63 1017.8
20260902103035 82 248 2.0 5.0 0.00 0.00 0.00 63 1017.8
20260902101517 83 137 2.0 7.0 0.00 0.00 0.00 61 1017.9
20260902100014 81 142 3.0 6.0 0.00 0.00 0.00 63 1018.1
20260902094511 81 131 3.0 7.0 0.00 0.00 0.00 64 1018.2
20260902093010 80 53 0.0 4.0 0.00 0.00 0.00 65 1018.2
20260902091510 80 137 0.0 4.0 0.00 0.00 0.00 66 1018.3
20260902090018 80 144 4.0 7.0 0.00 0.00 0.00 65 1018.4
20260902084505 79 153 2.0 7.0 0.00 0.00 0.00 65 1018.2
20260902083002 78 140 2.0 4.0 0.00 0.00 0.00 69 1018.1
20260902081503 78 141 3.0 5.0 0.00 0.00 0.00 70 1018.2
20260902074559 77 130 2.0 5.0 0.00 0.00 0.00 69 1017.9
20260902073057 77 51 2.0 5.0 0.00 0.00 0.00 71 1018.0
20260902071554 76 40 2.0 5.0 0.00 0.00 0.00 73 1018.1
20260902070050 76 44 2.0 6.0 0.00 0.00 0.00 74 1017.8
20260902064545 75 32 1.0 3.0 0.00 0.00 0.00 77 1017.7
20260902063053 74 355 3.0 4.0 0.00 0.00 0.00 79 1017.7
20260902061557 72 348 2.0 4.0 0.00 0.00 0.00 82 1017.5
20260902060039 70 61 2.0 5.0 0.00 0.00 0.00 84 1017.6
20260902054528 69 42 3.0 5.0 0.00 0.00 0.00 85 1017.5
20260902053022 69 40 2.0 4.0 0.00 0.00 0.00 86 1017.4
20260902051519 69 30 2.0 6.0 0.00 0.00 0.00 86 1017.2
20260902050021 69 45 3.0 5.0 0.00 0.00 0.00 86 1017.2
20260902044524 69 5 2.0 6.0 0.00 0.00 0.00 86 1017.2
20260902043014 68 34 2.0 4.0 0.00 0.00 0.00 86 1017.2